GW6083 Weather Reports


time (UTC)temp
C
wind
direction
speed
KPH
gust
KPH
rain 1hr
cm
rain 24hr
cm
rain mn
cm
humidity
%
barometer
mb
20260507105142 8 190 0.0 1.6 0.00 0.08 0.08 85 1003.7
20260507104640 8 182 0.0 0.0 0.00 0.08 0.08 85 1003.6
20260507104136 8 159 1.6 3.2 0.00 0.08 0.08 84 1003.6
20260507103632 8 205 0.0 1.6 0.00 0.08 0.08 85 1003.3
20260507103130 8 208 1.6 1.6 0.00 0.08 0.08 85 1003.5
20260507102626 8 218 1.6 1.6 0.00 0.08 0.08 85 1003.4
20260507102122 8 255 0.0 1.6 0.00 0.08 0.08 85 1003.4
20260507101618 8 210 0.0 1.6 0.00 0.08 0.08 85 1003.7
20260507101114 8 214 0.0 0.0 0.00 0.08 0.08 86 1003.2
20260507100612 8 203 3.2 4.8 0.00 0.08 0.08 86 1003.5
20260507100110 8 202 0.0 1.6 0.00 0.08 0.08 86 1003.4
20260507095607 8 211 1.6 1.6 0.00 0.08 0.08 87 1003.6
20260507095104 8 252 1.6 1.6 0.00 0.08 0.08 88 1003.5
20260507094600 8 283 3.2 3.2 0.00 0.08 0.08 88 1003.6
20260507094057 8 269 0.0 1.6 0.00 0.08 0.08 89 1003.3
20260507093554 8 214 0.0 1.6 0.00 0.08 0.08 89 1003.5
20260507093053 8 214 0.0 0.0 0.00 0.08 0.08 89 1003.3
20260507092549 8 209 0.0 0.0 0.00 0.08 0.08 90 1003.7
20260507092046 8 202 0.0 1.6 0.00 0.08 0.08 90 1003.6
20260507091543 8 206 0.0 0.0 0.00 0.08 0.08 91 1003.6
20260507091039 8 217 1.6 1.6 0.00 0.08 0.08 91 1003.8
20260507090534 8 203 0.0 1.6 0.00 0.08 0.08 91 1003.4
20260507090032 8 178 1.6 1.6 0.00 0.08 0.08 91 1003.6
20260507085529 8 210 0.0 1.6 0.00 0.08 0.08 91 1003.3
20260507085025 8 218 1.6 1.6 0.00 0.08 0.08 91 1003.4
20260507084522 8 205 0.0 0.0 0.00 0.08 0.08 90 1003.6
20260507084019 8 230 1.6 1.6 0.13 0.08 0.08 90 1003.3
20260507083515 9 218 0.0 1.6 0.13 0.08 0.08 90 1003.1
20260507083013 9 256 1.6 3.2 0.00 0.05 0.05 90 1003.2
20260507082509 9 225 1.6 3.2 0.00 0.05 0.05 89 1003.1
20260507082005 9 204 0.0 1.6 0.00 0.05 0.05 89 1003.1
20260507081501 9 211 1.6 1.6 0.00 0.05 0.05 89 1003.3
20260507080958 10 206 1.6 1.6 0.00 0.05 0.05 88 1002.9
20260507080454 10 254 1.6 3.2 0.18 0.05 0.05 87 1003.3
20260507075949 10 332 3.2 4.8 0.00 0.03 0.03 86 1003.1
20260507075446 10 202 1.6 1.6 0.00 0.03 0.03 86 1003.3
20260507074943 10 236 3.2 3.2 0.00 0.03 0.03 86 1003.2
20260507074440 10 244 3.2 3.2 0.00 0.03 0.03 87 1003.4
20260507073938 10 208 1.6 1.6 0.00 0.03 0.03 87 1003.2
20260507073434 10 219 0.0 1.6 0.00 0.03 0.03 87 1002.7
20260507072930 10 200 4.8 8.0 0.00 0.03 0.03 87 1002.9
20260507072428 10 234 1.6 1.6 0.00 0.03 0.03 87 1002.9
20260507071926 10 252 4.8 4.8 0.00 0.03 0.03 87 1002.5
20260507071422 10 228 1.6 1.6 0.00 0.03 0.03 88 1002.7
20260507070919 10 213 1.6 1.6 0.00 0.03 0.03 88 1003.0
20260507070416 10 218 1.6 1.6 0.00 0.03 0.03 88 1002.8
20260507065913 10 186 0.0 1.6 0.00 0.03 0.03 89 1002.9
20260507065410 10 218 1.6 1.6 0.00 0.03 0.03 90 1002.5
20260507064907 10 215 1.6 3.2 0.00 0.03 0.03 91 1002.6
20260507064405 10 258 3.2 3.2 0.00 0.03 0.03 93 1002.6
20260507063902 10 197 0.0 1.6 0.00 0.03 0.03 94 1002.8
20260507063359 10 209 1.6 1.6 0.00 0.03 0.03 95 1002.6
20260507062856 10 212 3.2 3.2 0.00 0.03 0.03 96 1002.4
20260507062353 10 217 1.6 1.6 0.00 0.03 0.03 97 1002.3
20260507061851 10 221 3.2 3.2 0.00 0.03 0.03 97 1002.4
20260507061348 10 210 0.0 0.0 0.00 0.03 0.03 97 1002.4
20260507060847 10 212 0.0 1.6 0.00 0.03 0.03 97 1002.3
20260507060343 10 215 0.0 0.0 0.00 0.03 0.03 97 1002.5
20260507055840 10 222 3.2 3.2 0.00 0.03 0.03 97 1002.8
20260507055335 10 218 1.6 3.2 0.00 0.03 0.03 97 1002.6
20260507054832 10 266 3.2 3.2 0.00 0.03 0.03 97 1002.7
20260507054328 10 215 0.0 0.0 0.00 0.03 0.03 98 1002.7
20260507053826 10 217 1.6 3.2 0.00 0.03 0.03 98 1002.9
20260507053323 10 211 1.6 1.6 0.00 0.03 0.03 98 1002.9
20260507052822 10 261 1.6 1.6 0.00 0.03 0.03 98 1002.8
20260507052318 10 195 0.0 0.0 0.00 0.03 0.03 98 1003.1
20260507051816 10 207 0.0 1.6 0.00 0.03 0.03 98 1003.1
20260507051313 10 211 1.6 1.6 0.00 0.03 0.03 98 1003.1
20260507050810 11 206 1.6 3.2 0.00 0.03 0.03 98 1002.8
20260507050306 11 229 1.6 3.2 0.00 0.03 0.03 98 1002.9
20260507045803 11 236 0.0 1.6 0.00 0.03 0.03 98 1002.8
20260507045259 11 204 0.0 0.0 0.00 0.03 0.03 98 1002.8
20260507044757 11 228 1.6 1.6 0.00 0.03 0.03 98 1002.8
20260507044253 11 216 0.0 0.0 0.00 0.03 0.03 98 1002.7
20260507043749 11 194 1.6 3.2 0.00 0.03 0.03 98 1002.9
20260507043246 11 218 0.0 1.6 0.00 0.03 0.03 98 1002.7
20260507042742 11 216 1.6 1.6 0.00 0.03 0.03 98 1002.6
20260507042237 11 266 3.2 3.2 0.00 0.03 0.03 99 1003.0
20260507041736 11 188 0.0 0.0 0.13 0.03 0.03 99 1003.0
20260507041232 11 217 1.6 1.6 0.13 0.03 0.03 99 1002.8
20260507040729 11 211 1.6 1.6 0.00 0.00 0.00 99 1002.9
20260507040225 11 231 4.8 8.0 0.00 0.00 0.00 99 1002.8
20260507035721 12 348 3.2 9.7 0.00 0.84 0.84 99 1002.6
20260507035217 12 333 3.2 3.2 0.00 0.84 0.84 99 1002.5
20260507034714 13 203 0.0 0.0 0.00 0.84 0.84 99 1002.2
20260507034211 13 190 1.6 3.2 0.00 0.84 0.84 99 1002.0
20260507033710 13 217 1.6 1.6 0.00 0.84 0.84 99 1001.9
20260507033207 13 239 3.2 4.8 0.00 0.84 0.84 99 1001.8
20260507032704 14 206 4.8 4.8 0.00 0.84 0.84 99 1001.7
20260507032159 15 202 0.0 1.6 0.00 0.84 0.84 99 1001.6
20260507031657 15 226 1.6 1.6 0.00 0.84 0.84 99 1001.6
20260507031153 15 229 3.2 4.8 0.00 0.84 0.84 99 1001.6
20260507030650 15 217 0.0 1.6 0.00 0.84 0.84 99 1001.7
20260507030148 15 217 0.0 1.6 0.00 0.84 0.84 99 1001.6
20260507025645 15 213 1.6 1.6 0.00 0.84 0.84 99 1001.3
20260507025142 15 213 4.8 4.8 0.00 0.84 0.84 99 1001.5
20260507024640 15 220 1.6 1.6 0.00 0.84 0.84 99 1001.3
20260507024137 15 166 3.2 4.8 0.00 0.84 0.84 99 1001.3
20260507023632 15 243 8.0 12.9 0.00 0.84 0.84 99 1001.3
20260507023130 15 209 1.6 3.2 0.00 0.84 0.84 99 1001.5
20260507022627 15 219 1.6 3.2 0.00 0.84 0.84 99 1001.2
20260507022122 15 217 4.8 4.8 0.00 0.84 0.84 99 1001.1
20260507021619 15 219 3.2 3.2 0.00 0.84 0.84 99 1001.3
20260507021115 15 203 3.2 8.0 0.00 0.84 0.84 99 1001.0
20260507020613 15 209 1.6 1.6 0.00 0.84 0.84 99 1001.3
20260507020109 15 213 8.0 9.7 0.00 0.84 0.84 99 1001.3
20260507015607 15 204 0.0 0.0 0.00 0.84 0.84 99 1001.6
20260507015104 15 208 4.8 8.0 0.00 0.84 0.84 99 1001.7
20260507014601 15 198 1.6 1.6 0.00 0.84 0.84 99 1001.4
20260507014056 15 211 1.6 1.6 0.00 0.84 0.84 99 1001.5
20260507013553 15 203 1.6 1.6 0.00 0.84 0.84 99 1001.3
20260507013051 15 216 0.0 0.0 0.00 0.84 0.84 99 1001.4
20260507012548 15 191 3.2 3.2 0.00 0.84 0.84 99 1001.5
20260507012044 15 215 3.2 4.8 0.00 0.84 0.84 99 1001.4
20260507011542 15 190 1.6 3.2 0.00 0.84 0.84 99 1001.6
20260507011038 15 213 3.2 3.2 0.00 0.84 0.84 99 1001.5
20260507010532 15 221 1.6 1.6 0.00 0.84 0.84 99 1001.7
20260507010029 15 207 0.0 0.0 0.00 0.84 0.84 99 1001.7
20260507005526 15 215 1.6 1.6 0.00 0.84 0.84 99 1001.6
20260507005023 15 222 8.0 11.3 0.00 0.84 0.84 99 1001.7
20260507004520 15 210 6.4 8.0 0.00 0.84 0.84 99 1001.5
20260507004017 15 221 4.8 8.0 0.00 0.84 0.84 99 1001.2
20260507003512 15 223 8.0 9.7 0.00 0.84 0.84 99 1001.5
20260507003008 15 161 4.8 4.8 0.00 0.84 0.84 99 1001.7
20260507002504 15 209 0.0 1.6 0.00 0.84 0.84 99 1001.4
20260507002001 15 223 1.6 1.6 0.00 0.84 0.84 99 1001.5
20260507001457 15 223 8.0 11.3 0.00 0.84 0.84 99 1001.5
20260507000955 15 181 1.6 3.2 0.00 0.84 0.84 99 1001.5
20260507000450 15 221 4.8 4.8 0.00 0.84 0.84 99 1001.2
20260506235946 15 197 0.0 0.0 0.18 0.84 0.84 99 1001.1
20260506235444 15 199 4.8 4.8 0.18 0.84 0.84 99 1001.4
20260506234939 15 181 1.6 1.6 0.00 0.81 0.81 99 1001.2
20260506234437 15 198 0.0 0.0 0.00 0.81 0.81 99 1001.2
20260506233934 15 226 0.0 1.6 0.00 0.81 0.81 99 1001.2
20260506233431 15 212 1.6 1.6 0.13 0.81 0.81 99 1001.4
20260506232927 15 197 0.0 1.6 0.48 0.81 0.81 99 1001.3
20260506232424 15 205 0.0 0.0 0.48 0.79 0.79 99 1001.3
20260506231919 15 176 1.6 1.6 0.13 0.74 0.74 99 1001.4
20260506231417 15 194 1.6 1.6 0.18 0.71 0.71 99 1001.2
20260506230914 15 203 0.0 1.6 0.30 0.71 0.71 99 1001.5
20260506230411 15 197 1.6 3.2 0.13 0.69 0.69 99 1001.7
20260506225907 15 162 1.6 1.6 0.18 0.66 0.66 99 1001.6
20260506225405 15 212 1.6 1.6 0.30 0.66 0.66 99 1001.4
20260506224901 15 171 3.2 3.2 0.30 0.64 0.64 99 1001.7
20260506224359 15 175 0.0 1.6 0.30 0.61 0.61 99 1001.4
20260506223855 15 218 4.8 4.8 0.43 0.58 0.58 99 1001.6
20260506223350 15 193 0.0 1.6 0.30 0.56 0.56 99 1001.6
20260506222848 15 202 0.0 0.0 0.18 0.51 0.51 98 1001.9
20260506222343 15 239 3.2 4.8 0.00 0.48 0.48 98 1001.6
20260506221841 15 230 8.0 9.7 0.13 0.48 0.48 98 1001.4
20260506221339 15 183 1.6 3.2 0.13 0.48 0.48 98 1001.6
20260506220836 15 211 6.4 9.7 0.00 0.46 0.46 98 1001.8
20260506220331 15 196 0.0 1.6 0.00 0.46 0.46 98 1001.9
20260506215828 15 216 6.4 11.3 0.00 0.46 0.46 98 1002.0
20260506215324 15 231 3.2 3.2 0.00 0.46 0.46 98 1002.0
20260506214820 15 169 3.2 4.8 0.00 0.46 0.46 98 1001.9
20260506214317 15 213 6.4 9.7 0.00 0.46 0.46 98 1002.1
20260506213815 15 101 4.8 8.0 0.00 0.46 0.46 98 1002.1
20260506213312 15 202 0.0 0.0 0.18 0.46 0.46 98 1002.1
20260506212810 15 193 0.0 0.0 0.18 0.46 0.46 98 1002.0
20260506212306 15 185 4.8 8.0 0.00 0.43 0.43 97 1002.4
20260506211800 15 215 4.8 4.8 0.00 0.43 0.43 97 1002.4
20260506211257 15 205 1.6 3.2 0.18 0.43 0.43 97 1002.2
20260506210754 16 197 3.2 4.8 0.30 0.43 0.43 97 1002.6
20260506210251 16 215 3.2 3.2 0.43 0.41 0.41 97 1002.5
20260506205748 16 187 3.2 4.8 0.30 0.38 0.38 97 1002.6
20260506205244 16 176 4.8 4.8 0.30 0.36 0.36 97 1002.3
20260506204741 16 203 0.0 0.0 0.30 0.33 0.33 97 1002.5
20260506204238 16 208 3.2 3.2 0.30 0.30 0.30 96 1002.6
20260506203736 16 215 1.6 1.6 0.18 0.28 0.28 96 1002.5
20260506203233 16 161 3.2 3.2 0.30 0.28 0.28 96 1002.4
20260506202730 16 196 1.6 1.6 0.30 0.25 0.25 96 1002.3
20260506202226 16 210 0.0 1.6 0.30 0.23 0.23 96 1002.5
20260506201724 16 198 3.2 3.2 0.30 0.20 0.20 95 1002.3
20260506201220 16 219 0.0 1.6 0.36 0.18 0.18 95 1002.4
20260506200717 16 213 0.0 1.6 0.18 0.15 0.15 95 1002.6
20260506200214 16 195 1.6 1.6 0.00 0.13 0.13 95 1002.4
20260506195710 16 231 1.6 3.2 0.00 0.13 0.13 94 1002.6
20260506195207 16 197 0.0 0.0 0.13 0.13 0.13 94 1002.3
20260506194704 17 207 1.6 1.6 0.18 0.10 0.10 93 1002.4
20260506194200 17 206 1.6 1.6 0.18 0.10 0.10 92 1002.3
20260506193658 17 187 0.0 1.6 0.18 0.10 0.10 91 1002.6
20260506193155 17 250 4.8 8.0 0.13 0.08 0.08 89 1002.3
20260506192652 18 199 1.6 1.6 0.18 0.05 0.05 87 1002.3
20260506192148 18 204 1.6 1.6 0.18 0.05 0.05 85 1002.5
20260506191645 19 219 0.0 1.6 0.00 0.03 0.03 81 1002.6
20260506191141 19 229 1.6 3.2 0.13 0.03 0.03 79 1002.5
20260506190639 20 195 3.2 3.2 0.13 0.03 0.03 77 1002.6
20260506190135 20 219 1.6 3.2 0.00 0.00 0.00 76 1002.6
20260506185632 20 246 8.0 14.5 0.00 0.00 0.00 73 1002.5
20260506185128 21 206 0.0 1.6 0.00 0.00 0.00 72 1002.7
20260506184626 21 196 1.6 3.2 0.00 0.00 0.00 68 1002.6
20260506184123 21 202 1.6 1.6 0.00 0.00 0.00 68 1002.4
20260506183620 21 228 4.8 4.8 0.00 0.00 0.00 67 1002.3
20260506183115 21 261 8.0 9.7 0.00 0.00 0.00 66 1002.4
20260506182614 21 240 4.8 8.0 0.00 0.00 0.00 66 1002.7
20260506182110 21 214 3.2 4.8 0.00 0.00 0.00 66 1002.5
20260506181608 21 224 4.8 8.0 0.00 0.00 0.00 66 1002.6
20260506181105 22 225 6.4 9.7 0.00 0.00 0.00 63 1002.5
20260506180602 22 130 1.6 3.2 0.00 0.00 0.00 60 1002.6
20260506180058 22 216 3.2 3.2 0.00 0.00 0.00 60 1002.6
20260506175554 22 199 3.2 8.0 0.00 0.00 0.00 61 1002.4
20260506175051 22 265 1.6 3.2 0.00 0.00 0.00 62 1002.8
20260506174550 22 217 6.4 9.7 0.00 0.00 0.00 61 1002.7
20260506174045 22 226 3.2 4.8 0.00 0.00 0.00 61 1002.5
20260506173543 23 155 12.9 17.7 0.00 0.00 0.00 60 1002.5
20260506173040 23 191 1.6 3.2 0.00 0.00 0.00 58 1002.7
20260506172537 23 200 3.2 3.2 0.00 0.00 0.00 58 1002.5
20260506172033 23 177 6.4 8.0 0.00 0.00 0.00 58 1002.8
20260506171531 23 235 6.4 8.0 0.00 0.00 0.00 57 1002.7
20260506171028 23 232 6.4 9.7 0.00 0.00 0.00 59 1002.8
20260506170526 23 131 3.2 3.2 0.00 0.00 0.00 59 1002.9
20260506170024 22 244 8.0 11.3 0.00 0.00 0.00 60 1003.1
20260506165522 22 202 0.0 1.6 0.00 0.00 0.00 61 1003.2
20260506165017 22 55 8.0 14.5 0.00 0.00 0.00 61 1003.2
20260506164514 22 198 1.6 3.2 0.00 0.00 0.00 61 1003.4
20260506164012 22 240 11.3 12.9 0.00 0.00 0.00 61 1003.5
20260506163508 22 220 6.4 8.0 0.00 0.00 0.00 61 1003.3
20260506163004 22 185 0.0 0.0 0.00 0.00 0.00 62 1003.4
20260506162500 22 240 8.0 16.1 0.00 0.00 0.00 62 1003.5
20260506161957 22 200 4.8 8.0 0.00 0.00 0.00 63 1003.6
20260506161455 22 201 6.4 11.3 0.00 0.00 0.00 63 1003.8
20260506160952 22 229 4.8 4.8 0.00 0.00 0.00 64 1003.8
20260506160449 22 259 3.2 3.2 0.00 0.00 0.00 63 1003.9
20260506155946 22 152 1.6 1.6 0.00 0.00 0.00 64 1004.0
20260506155444 22 190 0.0 1.6 0.00 0.00 0.00 65 1004.1
20260506153610 21 215 3.2 4.8 0.00 0.00 0.00 65 1004.7
20260506153108 21 202 6.4 11.3 0.00 0.00 0.00 65 1004.4
20260506152605 21 227 8.0 12.9 0.00 0.00 0.00 66 1004.9
20260506152103 22 220 4.8 8.0 0.00 0.00 0.00 66 1004.9
20260506151601 22 110 1.6 3.2 0.00 0.00 0.00 67 1004.8
20260506151057 22 201 1.6 3.2 0.00 0.00 0.00 67 1004.6
20260506150554 21 180 6.4 9.7 0.00 0.00 0.00 67 1004.5
20260506150051 21 199 0.0 1.6 0.00 0.00 0.00 68 1004.9
20260506145547 21 205 4.8 4.8 0.00 0.00 0.00 68 1005.0
20260506145045 21 238 3.2 3.2 0.00 0.00 0.00 70 1004.8
20260506144542 21 190 6.4 9.7 0.00 0.00 0.00 70 1004.5
20260506144039 20 222 3.2 3.2 0.00 0.00 0.00 71 1004.9
20260506143537 21 234 6.4 9.7 0.00 0.00 0.00 70 1004.9
20260506143035 20 240 0.0 3.2 0.00 0.00 0.00 71 1004.7
20260506142532 20 264 4.8 8.0 0.00 0.00 0.00 71 1004.6
20260506142030 21 90 6.4 11.3 0.00 0.00 0.00 70 1004.5
20260506141528 21 192 0.0 1.6 0.00 0.00 0.00 71 1004.5
20260506141026 20 217 1.6 3.2 0.00 0.00 0.00 71 1004.6
20260506140523 20 221 3.2 3.2 0.00 0.00 0.00 72 1004.6
20260506140020 20 198 3.2 3.2 0.00 0.00 0.00 72 1004.7
20260506135517 20 218 1.6 1.6 0.00 0.00 0.00 74 1004.9
20260506135013 19 210 3.2 3.2 0.00 0.00 0.00 74 1005.0
20260506134509 19 236 1.6 3.2 0.00 0.00 0.00 75 1005.0
20260506134006 20 221 6.4 9.7 0.00 0.00 0.00 74 1005.0
20260506133503 19 239 1.6 3.2 0.00 0.00 0.00 75 1005.2
20260506133000 18 173 3.2 4.8 0.00 0.00 0.00 76 1005.1
20260506132457 18 190 3.2 4.8 0.00 0.00 0.00 76 1005.3
20260506131954 18 219 1.6 3.2 0.00 0.00 0.00 76 1005.3
20260506131451 18 198 3.2 3.2 0.00 0.00 0.00 76 1005.3
20260506130948 18 214 3.2 3.2 0.00 0.00 0.00 76 1005.0
20260506130444 18 267 4.8 8.0 0.00 0.00 0.00 76 1005.3
20260506125942 18 196 6.4 9.7 0.00 0.00 0.00 76 1005.5
20260506125440 18 208 3.2 3.2 0.00 0.00 0.00 76 1004.9
20260506124938 18 105 3.2 3.2 0.00 0.00 0.00 76 1005.4
20260506124435 18 190 0.0 1.6 0.00 0.00 0.00 77 1005.1
20260506123933 18 229 4.8 8.0 0.00 0.00 0.00 76 1005.2
20260506123431 18 120 3.2 4.8 0.00 0.00 0.00 77 1005.3
20260506122928 18 209 8.0 11.3 0.00 0.00 0.00 77 1005.5
20260506122425 18 190 3.2 3.2 0.00 0.00 0.00 77 1005.3
20260506121924 18 222 1.6 3.2 0.00 0.00 0.00 76 1005.4
20260506121420 18 257 1.6 1.6 0.00 0.00 0.00 77 1005.3
20260506120917 17 202 0.0 1.6 0.00 0.00 0.00 79 1005.4
20260506120414 17 197 3.2 3.2 0.00 0.00 0.00 79 1005.3
20260506115911 17 201 3.2 3.2 0.00 0.00 0.00 79 1005.8
20260506115409 17 247 4.8 4.8 0.00 0.00 0.00 79 1005.6
20260506114908 17 207 1.6 1.6 0.00 0.00 0.00 80 1005.3
20260506114405 17 228 6.4 8.0 0.00 0.00 0.00 79 1005.6
20260506113904 17 171 1.6 1.6 0.00 0.00 0.00 80 1005.5
20260506113400 17 203 1.6 1.6 0.00 0.00 0.00 80 1005.9
20260506112856 17 308 6.4 8.0 0.00 0.00 0.00 80 1005.8
20260506112354 17 215 1.6 1.6 0.00 0.00 0.00 80 1005.6
20260506111851 17 217 1.6 1.6 0.00 0.00 0.00 80 1005.5
20260506111350 17 198 0.0 0.0 0.00 0.00 0.00 80 1005.7
20260506110847 17 208 4.8 8.0 0.00 0.00 0.00 81 1005.5
20260506110344 16 191 0.0 0.0 0.00 0.00 0.00 81 1005.7
20260506105841 16 190 1.6 3.2 0.00 0.00 0.00 82 1005.8